TimeEDT,TemperatureF,Dew PointF,Humidity,Sea Level PressureIn,VisibilityMPH,Wind Direction,Wind SpeedMPH,Gust SpeedMPH,PrecipitationIn,Events,Conditions,WindDirDegrees,DateUTC
12:51 AM,55.9,53.1,90,29.90,10.0,Calm,Calm,-,N/A,,Overcast,0,2013-03-19 04:51:00
1:51 AM,57.0,54.0,89,29.88,10.0,Calm,Calm,-,0.00,,Overcast,0,2013-03-19 05:51:00
2:51 AM,55.0,53.1,93,29.83,4.0,Calm,Calm,-,N/A,,Scattered Clouds,0,2013-03-19 06:51:00
3:51 AM,57.0,54.0,89,29.81,6.0,Variable,3.5,-,N/A,,Mostly Cloudy,0,2013-03-19 07:51:00
4:51 AM,57.0,54.0,89,29.78,9.0,ESE,3.5,-,0.00,Rain,Light Rain,110,2013-03-19 08:51:00
5:37 AM,57.2,55.4,94,29.80,1.8,WSW,10.4,16.1,0.07,Rain,Heavy Rain,250,2013-03-19 09:37:00
5:41 AM,60.8,57.2,88,29.79,1.2,West,10.4,20.7,0.19,Rain,Heavy Rain,270,2013-03-19 09:41:00
5:46 AM,60.8,59.0,94,29.80,2.0,WSW,13.8,20.7,0.23,Rain,Rain,250,2013-03-19 09:46:00
5:51 AM,61.0,57.9,90,29.80,5.0,WSW,11.5,18.4,0.24,Rain,Rain,250,2013-03-19 09:51:00
6:19 AM,60.8,57.2,88,29.79,2.5,WSW,6.9,-,0.06,Rain,Rain,240,2013-03-19 10:19:00
6:29 AM,60.8,57.2,88,29.78,3.0,WSW,4.6,-,0.08,Rain,Light Rain,240,2013-03-19 10:29:00
6:51 AM,60.1,57.9,93,29.78,5.0,SSW,6.9,-,0.08,,Overcast,200,2013-03-19 10:51:00
7:51 AM,61.0,57.9,90,29.78,10.0,West,9.2,21.9,N/A,,Scattered Clouds,280,2013-03-19 11:51:00
8:07 AM,57.2,55.4,94,29.79,10.0,WNW,6.9,-,N/A,,Mostly Cloudy,290,2013-03-19 12:07:00
8:18 AM,57.2,55.4,94,29.79,10.0,WNW,5.8,-,N/A,,Overcast,290,2013-03-19 12:18:00
8:32 AM,59.0,55.4,88,29.79,10.0,West,5.8,-,N/A,,Mostly Cloudy,280,2013-03-19 12:32:00
8:46 AM,60.8,57.2,88,29.79,10.0,West,6.9,-,N/A,,Partly Cloudy,280,2013-03-19 12:46:00
8:51 AM,60.1,57.0,90,29.79,10.0,West,9.2,-,N/A,,Partly Cloudy,270,2013-03-19 12:51:00
9:27 AM,57.2,55.4,94,29.82,10.0,WNW,9.2,17.3,N/A,,Scattered Clouds,300,2013-03-19 13:27:00
9:30 AM,57.2,53.6,88,29.82,2.5,NW,11.5,19.6,N/A,,Mostly Cloudy,310,2013-03-19 13:30:00
9:33 AM,55.4,53.6,94,29.82,1.2,NW,8.1,19.6,N/A,,Mostly Cloudy,310,2013-03-19 13:33:00
9:35 AM,55.4,53.6,94,29.82,0.8,NW,11.5,19.6,N/A,,Mostly Cloudy,310,2013-03-19 13:35:00
9:51 AM,55.0,53.1,93,29.83,0.5,NW,10.4,-,N/A,Fog,Fog,310,2013-03-19 13:51:00
9:58 AM,55.4,53.6,94,29.83,1.5,NW,10.4,17.3,N/A,,Overcast,310,2013-03-19 13:58:00
10:06 AM,55.4,53.6,94,29.82,2.0,NW,8.1,17.3,N/A,,Overcast,310,2013-03-19 14:06:00
10:28 AM,55.4,53.6,94,29.83,4.0,WNW,9.2,-,N/A,,Overcast,300,2013-03-19 14:28:00
10:51 AM,55.9,53.1,90,29.83,5.0,WNW,8.1,-,N/A,,Overcast,300,2013-03-19 14:51:00
11:11 AM,55.4,51.8,88,29.84,7.0,WNW,12.7,20.7,N/A,,Overcast,300,2013-03-19 15:11:00
11:51 AM,55.9,52.0,87,29.84,10.0,WNW,9.2,-,N/A,,Overcast,300,2013-03-19 15:51:00
12:51 PM,57.0,51.1,81,29.84,7.0,WNW,10.4,16.1,N/A,,Scattered Clouds,290,2013-03-19 16:51:00
1:51 PM,60.1,51.1,72,29.84,10.0,WNW,10.4,16.1,N/A,,Clear,300,2013-03-19 17:51:00
2:51 PM,62.1,48.9,62,29.83,10.0,WNW,9.2,-,N/A,,Clear,300,2013-03-19 18:51:00
3:51 PM,63.0,46.9,56,29.82,10.0,WNW,6.9,-,N/A,,Clear,300,2013-03-19 19:51:00
4:51 PM,61.0,48.0,62,29.82,10.0,WSW,11.5,-,N/A,,Clear,240,2013-03-19 20:51:00
5:51 PM,61.0,50.0,67,29.83,10.0,SW,6.9,-,N/A,,Clear,230,2013-03-19 21:51:00
6:51 PM,59.0,48.0,67,29.86,10.0,West,5.8,-,N/A,,Clear,260,2013-03-19 22:51:00
7:51 PM,57.9,50.0,75,29.88,10.0,WSW,9.2,-,N/A,,Clear,250,2013-03-19 23:51:00
8:51 PM,57.9,53.1,84,29.90,10.0,WSW,10.4,-,N/A,,Clear,240,2013-03-20 00:51:00
9:51 PM,57.9,53.1,84,29.92,9.0,WSW,9.2,-,N/A,,Clear,250,2013-03-20 01:51:00
10:51 PM,55.0,51.1,86,29.94,10.0,West,5.8,-,N/A,,Clear,270,2013-03-20 02:51:00
11:51 PM,55.9,48.9,77,29.95,10.0,West,5.8,-,N/A,,Clear,280,2013-03-20 03:51:00